Regional Weather Roundup
Issued by NWS Green Bay, WI

Home | Current Version | Previous Version | Graphics & Text | Print | Product List | Glossary Off
Versions: 1 2 3 4 5 6 7 8 9 10 11 12 13 14 15 16 17 18 19 20 21 22 23 24 25 26 27 28 29 30 31 32 33 34 35 36 37 38 39 40 41 42 43 44 45 46 47 48 49 50

000
ASUS43 KGRB 260259
RWRGRB

NORTH-CENTRAL AND NORTHEAST WISCONSIN REGIONAL WEATHER ROUNDUP
NATIONAL WEATHER SERVICE GREEN BAY WI
900 PM CST THU DEC 25 2014

WIZ005-009-010>012-018-019-260400-
NORTH CENTRAL WISCONSIN

CITY           SKY/WX    TMP DP  RH WIND       PRES   REMARKS
IRONWOOD       CLOUDY    30  30 100 CALM      29.85R
MANITOWISH WTR NOT AVBL
ARBOR VITAE    NOT AVBL
EAGLE RIVER    NOT AVBL
LAND O LAKES   NOT AVBL
RHINELANDER    LGT SNOW  29  28  96 CALM      29.87S FOG
PHILLIPS       LGT SNOW  29  29 100 CALM      29.87R
ANTIGO         NOT AVBL
TOMAHAWK       NOT AVBL
MERRILL        NOT AVBL
$$

WIZ013-073-260400-
NORTHEAST WISCONSIN

CITY           SKY/WX    TMP DP  RH WIND       PRES   REMARKS
IRON MOUNTAIN  LGT SNOW  32  30  92 S3        29.89R FOG
MARINETTE      PTCLDY    34  28  80 SW5       29.92R
$$

WIZ017-030-035>037-045-260400-
CENTRAL WISCONSIN

CITY           SKY/WX    TMP DP  RH WIND       PRES   REMARKS
MEDFORD        NOT AVBL
WAUSAU         MOCLDY    30  27  88 CALM      29.88R
MOSINEE        CLEAR     30  30 100 E3        29.89R
MARSHFIELD     MOCLDY    30  27  88 E6        29.86S
WISC RAPIDS    MOCLDY    29  26  89 CALM      29.89R
STEVENS POINT  NOT AVBL
WAUPACA        CLOUDY    32  31  94 CALM      29.91R FOG
SHAWANO        CLOUDY    32  30  93 CALM      29.91S
CLINTONVILLE   CLOUDY    30  30 100 CALM      29.90S
$$

WIZ038-039-048-051-260400-
FOX VALLEY

CITY           SKY/WX    TMP DP  RH WIND       PRES   REMARKS
NWS GREEN BAY  CLOUDY    32  31  96 CALM      29.91S
APPLETON       PTCLDY    32  32 100 CALM      29.91R
OSHKOSH        CLOUDY    37  32  82 SW9       29.91R
FOND DU LAC    CLOUDY    38  32  79 S15       29.91R
$$

WIZ022-050-052-260400-
EAST CENTRAL WISCONSIN

CITY           SKY/WX    TMP DP  RH WIND       PRES   REMARKS
STURGEON BAY   MOCLDY    34  28  80 S3        29.94S
MANITOWOC      NOT AVBL
SHEBOYGAN      MOCLDY    35  31  85 S8        29.92R
$$

LMZ563-521-522-541>543-260400-
LAKESHORE

STATION/POSITION TIME  TEMP    WIND        PRES    VSBY  WAVE
                       AIR SEA DIR/SP/G                  HT/PER
                 (UTC) (F)     (DEG/KT/KT) (MB)    (MI)  (FT/S)
SHEBOYGAN LKSHOR 0200   39 37  190/ 16/ 18 1013.8F
KEWAUNEE LKSHORE 0200   36     190/  1/  3 1012.5F
ALGOMA MARINA    0200             CALM       N/A
NORTHPORT PIER   0200   34      CALM  /  2 1013.5R
SISTER BAY LKSHO 0200          210/  9/ 10   N/A
CHAMBERS ISLAND  0200   35     190/  4/  8 1013.2S
MENOMINEE LKSHOR 0200   34     180/  5/  7 1013.9R
$$



USA.gov is the U.S. government's official web portal to all federal, state and local government web resources and services.